sat.trackr.live / text

‹ back to catalog

TJS-15

NORAD 63157 · 2025-045A

PAYLOAD ACTIVE UNKNOWN

§ Identity

Operator
Country
PRC
Launch date
2025-03-09
Launch site
XICLF
Launch vehicle
Mass (kg)
RCS (m²)

Purposes: comms

External: N2YO · Heavens-Above · Gunter

§ Orbital elements

Epoch: 2026-05-24T17:07:21.902016Z

Period
1,436.06 min
Inclination
0.2779°
Eccentricity
0.0005613
Mean motion
1.00274561 rev/d
Perigee alt
35,762.2 km
Apogee alt
35,809.5 km
Semi-major
42,164.0 km
B*
0.0000e+0
RAAN
84.9730°
Arg perigee
295.0455°
Mean anomaly
213.5325°
Rev number
452

§ Raw data

TJS-151 63157U 25045A   26144.71344794 -.00000269  00000+0  00000+0 0  99902 63157   0.2779  84.9730 0005613 295.0455 213.5325  1.00274561  4523

JSON: /api/v1/satellites/63157 · /tle

For live sub-satellite position, see the globe view (requires WebGL).

§ Visibility from observer

Set your observer location to see the next 7 days of passes ≥ 10°. The values pass through the URL so the page stays shareable.

No JS? Fill the form by hand. The geolocation button needs JavaScript.